Date,TemperatureHighF,TemperatureAvgF,TemperatureLowF,DewpointHighF,DewpointAvgF,DewpointLowF,HumidityHigh,HumidityAvg,HumidityLow,PressureMaxIn,PressureMinIn,WindSpeedMaxMPH,WindSpeedAvgMPH,GustSpeedMaxMPH,PrecipitationSumIn
2013-1-2,35,34,34,-2,-2,-3,20,20,20,28.41,28.41,11,4,13,0.12
2013-1-3,48,42,29,26,6,-7,47,23,16,28.53,28.38,14,3,14,0.00
2013-1-4,48,43,38,34,26,17,71,54,28,28.59,28.41,10,2,12,0.00
2013-1-5,43,40,38,35,24,14,73,54,33,28.47,28.41,10,2,10,190.88
2013-1-6,45,41,38,34,26,18,72,56,38,28.50,28.38,11,1,11,0.00
2013-1-7,48,45,40,40,37,24,77,73,55,28.50,28.32,15,5,15,0.00
2013-1-8,49,46,43,40,34,25,78,64,39,28.50,28.26,17,4,17,0.00
2013-1-9,44,37,33,36,29,26,77,73,57,28.26,28.20,6,2,6,0.00
2013-1-10,35,33,32,28,26,23,79,74,64,28.35,28.26,4,0,5,0.00
2013-1-11,33,30,24,26,20,14,75,68,54,28.53,28.35,0,0,0,0.00
2013-1-12,33,26,22,19,12,6,64,56,35,28.59,28.50,4,0,5,0.00
2013-1-13,29,23,17,16,10,5,69,58,47,28.67,28.59,8,1,8,0.00
2013-1-14,36,28,19,22,14,8,69,55,41,28.76,28.67,5,0,5,0.00
2013-1-15,36,33,29,27,21,12,80,62,36,28.82,28.76,6,1,6,0.00
2013-1-16,36,32,30,30,25,19,80,75,57,28.82,28.67,7,1,8,0.00
2013-1-17,45,36,27,24,14,5,72,41,23,28.67,28.53,10,3,10,0.00
2013-1-18,50,44,38,8,2,-2,24,17,14,28.53,28.47,11,3,11,0.00
2013-1-19,49,43,34,14,4,-4,40,20,14,28.56,28.50,9,1,9,0.00
2013-1-20,43,38,33,16,7,-1,45,29,18,28.56,28.47,8,0,8,0.00
2013-1-21,47,41,34,9,-1,-6,31,17,14,28.50,28.38,8,1,8,0.00
2013-1-22,50,42,34,15,2,-6,44,20,14,28.41,28.17,9,1,10,0.00
2013-1-23,44,39,33,31,19,2,75,49,18,28.44,28.14,6,0,6,0.00
2013-1-24,54,43,34,39,29,20,78,61,28,28.44,28.35,9,2,9,0.00
2013-1-25,48,46,37,41,39,30,78,77,75,28.41,28.26,10,2,10,0.00
2013-1-26,42,37,33,32,27,21,76,67,45,28.35,28.23,13,3,13,0.00
2013-1-27,40,35,33,33,28,24,81,75,56,28.41,28.32,9,4,10,0.00
2013-1-28,39,37,34,34,32,28,83,81,78,28.50,28.35,9,4,9,0.00
2013-1-29,42,40,39,37,35,34,82,81,80,28.73,28.47,10,3,10,0.00
2013-1-30,45,42,39,38,35,33,81,78,67,28.73,28.70,9,2,9,0.00
2013-1-31,50,44,40,40,32,24,78,66,37,28.70,28.61,4,0,4,0.00
2013-2-1,49,42,37,33,24,6,71,50,20,28.61,28.50,10,2,10,0.00
2013-2-2,51,45,37,21,11,2,51,25,17,28.59,28.50,11,2,11,0.00
2013-2-3,47,41,36,33,26,20,74,57,34,28.59,28.50,4,0,4,0.00
2013-2-4,51,43,37,30,24,16,67,49,29,28.50,28.23,9,1,9,0.00
2013-2-5,47,42,39,32,26,20,74,55,36,28.35,28.23,14,5,14,0.00
2013-2-6,49,42,37,31,21,13,72,45,24,28.38,28.17,16,4,16,0.00
2013-2-7,39,35,32,28,25,18,73,68,43,28.38,28.23,10,2,10,0.00
2013-2-8,34,33,31,25,20,13,74,61,41,28.53,28.38,6,0,6,0.00
2013-2-9,34,34,33,23,22,20,64,62,61,28.53,28.50,3,0,3,0.00
2013-2-10,44,38,34,32,25,19,75,61,38,28.59,28.53,5,0,5,0.00
2013-2-11,45,39,35,32,22,13,73,53,31,28.64,28.53,5,0,5,0.00
2013-2-12,49,43,39,38,34,28,76,69,46,28.73,28.64,8,0,8,0.00
2013-2-13,48,44,41,38,34,30,77,68,52,28.76,28.67,7,2,7,0.00
2013-2-14,52,45,38,38,30,19,75,58,29,28.79,28.70,8,1,8,0.00
2013-2-15,50,44,39,37,25,15,72,47,29,28.70,28.50,11,2,11,0.00
2013-2-16,45,41,36,33,27,14,73,59,28,28.56,28.50,7,0,8,0.00
2013-2-17,44,37,32,32,21,9,75,55,26,28.53,28.35,5,0,5,0.00
2013-2-18,45,37,31,22,14,8,62,40,23,28.35,28.02,9,1,9,0.00
2013-2-19,48,38,33,25,19,12,69,47,28,28.26,27.96,8,1,8,0.00
2013-2-20,47,38,34,29,23,13,73,57,28,28.38,28.26,10,1,10,0.00
2013-2-21,40,37,35,30,26,20,76,66,50,28.47,28.38,11,4,13,0.00
2013-2-22,41,38,34,32,26,18,76,62,40,28.47,28.20,25,7,25,0.00
2013-2-23,39,34,32,29,25,21,78,69,53,28.67,28.35,11,2,11,0.00
2013-2-24,47,38,32,26,19,12,73,50,24,28.67,28.38,13,1,13,0.00
2013-2-25,40,37,33,31,26,14,76,67,35,28.61,28.32,15,5,15,0.00
2013-2-26,47,38,31,25,17,6,72,47,19,28.61,28.50,6,1,7,0.00
2013-2-27,45,40,34,29,19,11,57,43,31,28.56,28.50,6,1,9,0.00
2013-2-28,52,48,44,43,37,29,76,65,48,28.73,28.50,14,5,17,0.00
2013-3-1,59,51,45,42,35,24,74,56,27,28.73,28.59,6,0,8,0.00
2013-3-2,50,45,38,38,34,28,75,64,47,28.59,28.44,6,0,6,0.00
2013-3-3,48,37,29,30,11,-1,74,38,14,28.56,28.47,10,2,10,0.00
2013-3-4,51,39,31,20,9,-5,52,31,14,28.47,28.20,13,2,13,0.00
2013-3-5,50,41,36,33,22,0,74,49,18,28.20,27.91,6,1,6,0.00
2013-3-6,41,38,34,33,27,18,74,63,45,28.23,27.82,14,3,14,0.00
2013-3-7,50,40,32,23,17,8,63,40,19,28.32,28.23,8,2,8,0.00
2013-3-8,55,41,33,28,20,12,70,46,18,28.47,28.26,6,1,6,0.00
2013-3-9,55,42,33,22,12,0,60,33,13,28.73,28.47,8,1,8,0.00
2013-3-10,58,46,38,37,14,3,72,32,12,28.73,28.67,6,1,6,0.00
2013-3-11,52,48,45,39,37,33,72,67,48,28.67,28.53,0,0,0,0.00
2013-3-12,55,49,45,42,34,27,75,58,35,28.53,28.47,7,0,7,0.00
2013-3-13,46,45,43,36,34,33,68,67,65,28.50,28.47,0,0,0,0.00
2013-3-16,46,41,34,36,30,20,75,66,54,28.44,28.29,15,4,15,0.00
2013-3-17,46,39,34,34,20,10,76,48,25,28.56,28.44,8,2,9,0.00
2013-3-18,53,38,29,28,14,0,73,43,14,28.53,28.38,8,1,8,0.00
2013-3-19,57,46,37,36,15,0,63,32,14,28.38,28.02,17,3,17,0.00
2013-3-20,50,44,34,39,29,17,72,57,28,28.44,27.91,18,6,20,0.00
2013-3-21,44,36,33,26,22,15,72,59,40,28.56,28.44,12,2,12,0.00
2013-3-22,45,35,32,27,21,11,73,58,28,28.61,28.53,6,1,8,0.00
2013-3-23,47,36,31,24,15,3,71,45,17,28.61,28.50,6,1,6,0.00
2013-3-24,55,43,34,23,15,6,49,34,15,28.50,28.35,8,2,8,0.00
2013-3-25,59,46,36,23,16,9,51,31,14,28.38,28.20,8,2,10,0.00
2013-3-26,53,45,41,33,27,21,67,50,31,28.29,28.26,5,0,5,0.00
2013-3-27,63,49,41,36,25,12,68,43,14,28.32,28.20,8,1,8,0.00
2013-3-28,61,52,44,36,26,8,70,43,14,28.38,28.29,7,1,7,0.00
2013-3-29,66,54,46,39,30,18,72,45,18,28.50,28.44,8,1,9,0.00
2013-3-30,71,59,48,33,23,10,52,27,14,28.47,28.29,10,3,13,0.00
2013-3-31,72,57,46,32,24,12,58,30,11,28.35,28.26,10,1,10,0.00
2013-4-1,58,52,49,41,36,31,71,55,36,28.47,28.35,6,0,6,0.00
2013-4-2,64,53,47,41,30,14,73,48,16,28.50,28.44,8,0,8,0.00
2013-4-3,66,55,45,37,26,12,58,36,13,28.47,28.26,10,1,10,0.00
2013-4-4,59,53,48,41,33,22,69,47,27,28.26,28.05,11,4,11,0.00
2013-4-5,55,49,46,39,34,26,73,57,37,28.29,28.17,14,5,14,0.00
2013-4-6,53,46,42,38,32,20,73,59,29,28.32,28.05,13,4,13,0.00
2013-4-7,48,42,36,32,28,25,72,58,41,28.26,27.94,23,5,23,0.00
2013-4-8,52,43,36,34,26,15,75,55,26,28.56,28.26,6,0,7,0.00
2013-4-9,60,48,37,30,24,14,73,43,17,28.61,28.53,7,1,7,0.00
2013-4-10,48,43,38,26,23,18,60,44,31,28.61,28.53,6,1,8,0.00
2013-4-11,54,43,36,33,20,5,72,44,16,28.61,28.44,6,1,6,0.00
2013-4-12,58,44,35,35,21,12,74,42,17,28.44,28.20,11,2,11,0.00
2013-4-13,50,43,36,31,18,8,70,38,19,28.38,28.35,8,2,8,0.00
2013-4-14,49,38,35,28,23,16,69,55,28,28.38,28.23,9,3,10,0.00
2013-4-15,50,40,35,31,21,6,73,49,19,28.44,28.23,8,1,8,0.00
2013-4-16,54,44,37,33,20,2,73,46,13,28.64,28.44,8,1,8,0.00
2013-4-17,56,45,34,25,17,3,65,37,13,28.73,28.64,7,1,7,0.00
2013-4-18,64,50,39,30,20,9,56,34,13,28.73,28.61,6,0,6,0.00
2013-4-19,52,47,45,39,36,29,75,64,50,28.61,28.50,13,3,13,0.00
2013-4-20,61,48,39,37,26,10,75,48,14,28.61,28.56,8,1,8,0.00
2013-4-21,56,46,39,32,27,20,72,50,26,28.59,28.53,6,1,6,0.00
2013-4-22,63,50,37,29,12,0,70,29,11,28.64,28.56,9,3,9,0.00
2013-4-23,66,52,40,8,3,-2,16,13,10,28.61,28.44,13,3,13,0.00
2013-4-24,70,58,47,11,6,0,14,12,9,28.50,28.32,11,4,11,0.00
2013-4-25,73,59,46,14,8,2,27,13,9,28.47,28.32,9,1,9,0.00
2013-4-26,77,62,50,20,12,6,27,15,8,28.56,28.47,9,1,9,0.00
2013-4-27,74,59,48,20,8,2,33,13,8,28.56,28.53,6,1,7,0.00
2013-4-28,68,55,46,30,21,6,54,30,10,28.56,28.44,9,1,9,0.00
2013-4-29,57,47,38,39,19,0,73,38,13,28.47,28.38,10,2,10,0.00
2013-4-30,55,42,32,18,8,-2,55,27,13,28.64,28.47,10,2,10,0.00
2013-5-1,66,51,34,14,9,4,41,21,10,28.70,28.64,11,2,11,0.00
2013-5-2,76,63,51,11,7,2,14,11,8,28.70,28.53,13,3,13,0.00
2013-5-3,74,61,45,22,11,3,37,16,8,28.56,28.44,11,2,11,0.00
2013-5-4,76,66,52,11,8,3,15,10,8,28.44,28.20,13,2,13,0.00
2013-5-5,78,69,58,12,9,6,12,10,8,28.23,28.08,14,4,14,0.00
2013-5-6,75,62,49,31,20,6,38,22,11,28.23,28.14,8,2,8,0.00
2013-5-7,71,58,45,36,24,12,62,31,12,28.35,28.23,8,1,8,0.00
2013-5-8,64,54,44,38,31,23,73,45,21,28.44,28.32,5,0,5,0.00
2013-5-9,75,63,50,37,23,0,60,27,1,28.47,28.38,8,1,8,0.00
2013-5-10,81,67,54,31,20,9,32,18,9,28.50,28.44,8,1,8,0.00
2013-5-11,82,67,54,36,27,14,48,25,9,28.50,28.35,6,1,6,0.00
2013-5-12,78,62,55,44,35,22,63,40,13,28.44,28.38,6,1,232,0.00
2013-5-13,65,55,46,45,34,20,71,49,22,28.50,28.38,6,0,6,0.00
2013-5-14,65,52,42,33,17,3,64,31,10,28.50,28.41,8,1,8,0.00
2013-5-15,61,50,45,39,26,10,68,42,22,28.41,28.32,4,0,4,0.00
2013-5-16,50,50,49,36,34,33,61,55,52,28.32,28.29,5,0,5,0.00
2013-5-18,56,52,50,39,35,29,65,54,36,28.56,28.50,0,0,0,0.00
2013-5-19,61,53,48,41,33,10,73,52,14,28.67,28.56,0,0,0,0.00
2013-5-22,42,42,41,34,32,29,72,68,62,28.29,28.29,14,2,14,0.00
2013-5-23,59,46,40,35,25,11,70,47,17,28.32,28.29,15,4,15,0.00
2013-5-24,60,48,43,36,28,13,75,49,17,28.38,28.29,13,4,14,0.00
2013-5-25,67,54,44,37,24,10,65,37,12,28.38,28.26,8,1,8,0.00
2013-5-26,61,52,45,42,33,25,73,50,26,28.38,28.26,10,2,10,0.00
2013-5-27,64,52,45,40,36,28,70,56,26,28.32,28.11,19,3,19,0.00
2013-5-28,63,53,47,38,30,15,69,44,19,28.26,28.08,8,3,9,0.00
2013-5-29,58,49,45,41,36,28,72,62,33,28.38,27.99,22,4,22,0.00
2013-5-30,64,52,44,37,26,10,73,42,13,28.56,28.38,9,1,9,0.00
2013-5-31,65,55,44,32,22,11,57,31,13,28.59,28.53,8,1,8,0.00
2013-6-1,72,56,47,32,26,14,51,35,11,28.56,28.47,5,0,5,0.00
2013-6-4,78,70,54,25,16,11,25,13,10,28.38,28.32,3,1,3,0.00
2013-6-5,82,69,56,36,23,9,46,21,8,28.41,28.32,6,2,6,0.00
2013-6-6,78,68,56,38,28,9,50,26,8,28.38,28.32,8,5,8,0.00
2013-6-7,77,66,54,39,28,11,52,29,8,28.44,28.38,6,3,6,0.00
2013-6-8,77,62,51,47,31,9,72,41,8,28.44,28.41,5,5,5,0.00
2013-6-10,63,56,48,27,21,6,38,27,11,28.29,28.23,9,2,10,0.00
2013-6-11,66,54,47,26,20,7,43,29,10,28.44,28.29,7,1,7,0.00
2013-6-12,59,50,47,27,25,22,45,37,25,28.50,28.44,6,1,6,0.00
2013-6-13,51,47,46,40,35,26,70,62,42,28.59,28.47,8,1,8,0.00
2013-6-14,68,56,46,44,29,16,75,42,15,28.59,28.29,8,1,8,0.00
2013-6-15,76,62,49,40,28,13,67,33,10,28.35,28.26,9,0,9,0.00
2013-6-16,73,59,48,42,30,14,73,40,11,28.44,28.35,6,0,6,0.00
2013-6-17,75,60,48,42,27,12,72,35,11,28.44,28.29,6,1,6,0.00
2013-6-18,62,56,51,35,29,24,51,37,24,28.35,28.26,8,1,8,0.00
2013-6-19,61,54,48,40,32,22,73,44,25,28.41,28.26,8,1,8,0.00
2013-6-20,67,56,50,40,31,16,67,41,15,28.44,28.38,5,1,5,0.00
2013-6-21,68,57,48,41,26,11,71,37,12,28.47,28.41,8,0,8,0.00
2013-6-22,77,64,50,29,20,9,42,22,9,28.44,28.20,8,0,8,0.00
2013-6-23,70,61,55,48,38,25,69,43,25,28.23,28.02,5,0,5,0.00
2013-6-24,65,56,51,48,37,26,69,51,23,28.05,28.02,0,0,0,0.00
2013-6-25,67,57,54,44,38,32,67,50,28,28.11,28.02,0,0,0,0.00
2013-6-26,66,62,59,36,33,26,41,34,25,28.38,28.35,0,0,0,0.00
2013-6-27,81,68,60,40,31,17,40,28,9,28.50,28.35,0,0,0,0.00
2013-6-28,82,70,61,50,35,17,69,32,9,28.50,28.41,0,0,0,0.00
2013-6-29,81,67,58,36,29,15,43,25,10,28.47,28.35,0,0,0,0.00
2013-6-30,89,81,68,41,26,17,36,16,8,28.29,28.23,0,0,0,0.00
2013-7-1,87,74,62,47,37,24,53,29,11,28.35,28.26,0,0,0,0.00
2013-7-2,88,74,63,54,36,20,67,31,10,28.41,28.35,8,1,8,0.00
2013-7-3,83,70,58,47,27,9,64,26,8,28.44,28.35,9,1,9,0.00
2013-7-4,72,62,50,36,25,13,56,28,11,28.44,28.35,8,2,8,0.00
2013-7-5,69,59,50,34,25,12,53,30,12,28.38,28.26,8,3,8,0.00
2013-7-6,69,61,48,41,28,13,69,33,12,28.29,28.20,9,1,9,0.00
2013-7-7,75,67,57,38,25,20,49,22,13,28.29,28.20,10,1,10,0.00
2013-7-8,76,60,50,46,35,13,74,48,10,28.38,28.29,6,1,6,0.00
2013-7-9,86,71,56,37,26,0,48,22,8,28.41,28.35,6,1,6,0.00
2013-7-10,70,70,70,26,26,26,19,19,19,28.38,28.35,0,0,0,0.00
2013-7-13,67,64,63,11,9,7,13,11,10,28.38,28.32,8,2,9,0.00
2013-7-14,86,70,63,20,12,7,13,11,7,28.41,28.29,9,2,9,0.00
2013-7-15,85,69,53,27,18,8,36,15,8,28.35,28.14,8,1,8,0.00
2013-7-16,85,70,55,38,24,14,54,21,8,28.35,28.14,10,1,10,0.00
2013-7-17,75,62,54,41,30,14,61,36,10,28.47,28.35,7,1,7,0.00
2013-7-18,83,67,52,50,26,9,72,30,8,28.50,28.38,8,1,8,0.00
2013-7-19,81,69,52,36,18,9,37,16,9,28.44,28.35,8,1,232,0.00
2013-7-20,80,66,52,46,30,14,70,33,10,28.38,28.26,10,1,10,0.00
2013-7-21,78,70,52,36,21,16,54,19,10,28.29,28.23,7,1,7,0.00
2013-7-22,84,75,61,34,20,8,36,14,8,28.35,28.26,9,2,9,0.00
2013-7-23,90,76,57,29,17,9,34,11,6,28.35,28.29,10,1,10,0.00
2013-7-24,87,75,60,19,13,6,14,10,6,28.38,28.32,9,1,9,0.00
2013-7-25,89,74,63,20,13,7,13,10,6,28.41,28.35,8,2,8,0.00
2013-7-26,89,72,57,24,14,7,26,11,6,28.44,28.35,10,2,10,0.00
2013-7-27,75,62,51,66,20,-10,76,23,4,28.47,28.41,8,1,8,0.00
2013-8-3,64,64,64,30,30,29,27,27,27,28.35,28.35,0,0,0,0.00
2013-8-10,74,65,57,43,35,23,59,36,16,28.38,28.32,7,1,7,0.00
2013-8-11,73,62,56,48,37,22,71,43,16,28.38,28.32,8,0,8,0.00
2013-8-12,74,62,55,47,39,23,70,47,16,28.41,28.35,6,0,6,0.00
2013-8-13,65,59,54,48,38,12,72,52,13,28.41,28.29,5,0,5,0.00
2013-8-14,82,69,58,38,25,9,44,22,8,28.32,28.29,6,1,6,0.00
2013-8-15,62,61,61,34,34,34,36,36,35,28.32,28.32,2,0,2,0.00
2013-8-29,63,62,62,49,47,45,61,58,53,28.44,28.41,0,0,0,0.00
2013-8-30,73,65,61,52,40,20,71,43,14,28.50,28.38,0,0,0,0.00
2013-8-31,83,70,60,42,30,17,51,28,9,28.38,28.20,0,0,0,0.00
2013-9-1,79,68,55,43,23,9,61,24,8,28.26,28.17,0,0,0,0.00
2013-9-2,78,71,60,32,17,9,34,14,8,28.29,28.23,8,0,8,0.00
2013-9-3,66,59,57,47,40,17,70,54,15,28.35,28.26,8,0,8,0.00
2013-9-4,70,65,56,40,30,22,53,28,17,28.38,28.32,4,0,4,0.00
2013-9-5,67,60,57,50,45,34,73,60,33,28.38,28.32,0,0,0,0.00
2013-9-11,88,77,64,41,26,9,42,18,8,28.32,28.26,6,1,6,0.00
2013-9-12,76,64,56,51,42,28,74,49,18,28.35,28.29,5,1,5,0.00
2013-9-13,68,64,63,48,46,39,59,53,34,28.32,28.20,5,0,5,0.00
2013-9-14,76,69,62,52,39,31,70,35,20,28.20,28.08,6,0,6,0.00
2013-9-15,64,61,57,52,46,36,70,58,35,28.23,28.08,7,1,7,0.00
2013-9-16,72,58,54,47,36,14,69,48,11,28.32,28.23,10,2,10,0.00
2013-9-17,65,57,52,45,34,11,71,48,13,28.32,28.17,6,2,6,0.00
2013-9-18,67,56,52,47,32,11,74,46,12,28.41,28.32,6,2,6,0.00
2013-9-19,72,59,50,29,21,11,38,24,11,28.32,28.11,8,1,8,0.00
2013-9-20,74,58,50,39,28,14,55,34,11,28.11,27.99,8,1,8,0.00
2013-9-21,57,55,54,44,42,27,65,61,32,28.11,27.99,8,2,8,0.00
2013-9-22,54,52,52,42,37,35,65,56,52,28.17,28.02,20,6,20,0.00
2013-9-23,56,53,52,45,38,36,73,59,49,28.26,28.17,13,4,13,0.00
2013-9-24,53,50,46,45,41,34,74,71,56,28.26,28.14,5,1,5,0.00
2013-9-25,55,48,45,43,35,22,76,62,30,28.29,28.11,4,1,4,0.00
2013-9-26,59,51,46,44,31,9,75,52,14,28.41,28.26,0,0,0,0.00
2013-9-27,58,51,45,47,35,17,75,59,22,28.41,28.20,12,1,12,0.00
2013-9-28,63,57,55,48,39,27,74,53,26,28.20,27.82,28,8,28,0.00
2013-9-29,56,51,49,47,38,31,74,60,49,27.99,27.73,29,8,32,0.00
2013-9-30,53,49,47,43,31,25,75,51,37,28.23,27.91,15,5,22,0.00
2013-10-1,48,46,42,39,34,28,76,62,49,28.41,28.20,10,3,11,0.00
2013-10-2,47,41,39,36,30,24,76,63,52,28.38,28.26,7,1,8,0.00
2013-10-3,54,46,41,40,30,11,76,57,25,28.56,28.38,6,1,6,0.00
2013-10-4,61,50,41,33,23,10,62,37,19,28.59,28.50,10,4,10,0.00
2013-10-5,66,55,47,40,17,4,60,24,13,28.50,28.32,10,2,10,0.00
2013-10-6,73,59,51,22,10,3,27,14,9,28.32,28.17,8,2,8,0.00
2013-10-7,55,50,46,42,34,6,72,57,16,28.29,28.17,8,3,8,0.00
2013-10-8,48,46,42,39,37,29,74,69,52,28.29,28.11,8,2,8,0.00
2013-10-9,42,42,42,34,33,29,73,70,58,28.14,28.11,0,0,0,0.00
2013-10-13,55,50,42,32,25,19,57,39,26,28.29,28.26,5,1,6,0.00
2013-10-14,57,48,44,29,16,1,40,29,13,28.32,28.26,9,2,9,0.00
2013-10-15,50,48,46,24,6,0,37,18,14,28.29,28.11,7,2,7,0.00
2013-10-16,53,50,45,31,21,16,51,33,27,28.11,28.08,4,0,4,0.00
2013-10-17,62,52,46,40,25,7,64,36,15,28.14,28.08,10,1,10,0.00
2013-10-18,64,55,50,33,15,2,48,22,12,28.11,28.02,9,2,10,0.00
2013-10-19,64,54,45,38,28,16,62,38,19,28.05,28.02,5,0,5,0.00
2013-10-20,64,54,47,36,24,15,54,32,20,28.05,27.96,5,0,5,0.00
2013-10-21,68,61,51,35,15,5,46,17,10,27.99,27.91,10,2,10,0.00
2013-10-22,69,62,55,37,17,6,46,19,10,27.94,27.91,11,2,11,0.00
2013-10-23,66,58,52,47,24,9,71,30,13,27.91,27.85,8,1,8,0.00
2013-10-24,62,55,49,43,26,16,72,34,22,27.96,27.88,8,1,8,0.00
2013-10-25,56,49,45,44,36,27,75,63,34,28.08,27.96,4,0,4,0.00
2013-10-26,53,48,44,42,36,26,78,64,37,28.08,27.96,4,0,6,0.00
2013-10-27,48,46,44,40,34,22,75,64,39,27.96,27.67,10,1,11,0.00
2013-10-28,48,43,36,29,12,-3,56,31,15,27.73,27.64,8,1,8,0.00
2013-10-29,43,40,36,16,4,-4,39,23,15,27.91,27.73,5,0,5,0.00
2013-10-30,52,44,38,19,14,6,40,30,16,28.02,27.91,6,0,6,0.00
2013-10-31,52,50,47,42,31,18,74,52,29,28.08,27.99,8,0,8,0.00
2013-11-1,55,49,45,41,33,19,77,55,26,28.08,27.76,10,2,10,0.00
2013-11-2,51,49,46,42,39,35,74,67,55,27.79,27.64,14,5,14,0.00